This demonstration page uses our WeatherBlox Daily Observations layout. Learn more.

Left ArrowRight Arrow

38.20091, -84.87328

Hourly Observations for July 14, 2015

Temp ( °F °C ) Dew Point ( °F °C ) Humidity (%) Winds ( mph kmh ) Pressure ( in mb ) Visibility ( mi km ) Precip ( " mm )
12:53 am 00:53 Clear 75 23.9 70 21.1 84 84 SW 8 13 29.69 1005 10 16 0.00 0.00
1:25 am 01:25 Mostly Clear with Nearby Thunderstorms 75 23.9 70 21.1 84 84 W 3 6 29.68 1005 10 16 0.00 0.00
1:53 am 01:53 Mostly Cloudy with Nearby Thunderstorms 73 22.8 68 20 84 84 N 22 35 29.73 1007 10 16 0.01 0.25
1:58 am 01:58 Mostly Cloudy with Thunderstorms 72 22.2 67 19.4 84 84 NNE 12 19 29.74 1007 8 13 0.03 0.76
2:28 am 02:28 Cloudy with Strong Thunderstorms 70 21.1 67 19.4 90 90 N 8 13 29.74 1007 2 2 0.32 8.13
2:32 am 02:32 Cloudy with Strong Thunderstorms 69 20.6 67 19.4 93 93 N 8 13 29.74 1007 1 2 0.48 12.19
2:35 am 02:35 Cloudy with Strong Thunderstorms 69 20.6 67 19.4 93 93 VRB 6 9 29.74 1007 1 1 0.64 16.26
2:43 am 02:43 Cloudy with Strong Thunderstorms 69 20.6 67 19.4 93 93 N 9 15 29.71 1006 1 2 0.80 20.32
2:46 am 02:46 Cloudy with Strong Thunderstorms 69 20.6 66 18.9 90 90 VRB 3 6 29.71 1006 1 2 0.84 21.34
2:53 am 02:53 Cloudy with Strong Thunderstorms 69 20.6 67 19.4 93 93 WSW 3 6 29.72 1006 2 3 0.89 22.61
3:02 am 03:02 Cloudy with Thunderstorms 69 20.6 67 19.4 93 93 SSE 7 11 29.71 1006 2 3 0.10 2.54
3:16 am 03:16 Cloudy with Thunderstorms 69 20.6 67 19.4 93 93 N 5 7 29.74 1007 4 6 0.16 4.06
3:21 am 03:21 Cloudy with Strong Thunderstorms 69 20.6 67 19.4 93 93 Calm 29.74 1007 2 3 0.26 6.60
3:34 am 03:34 Cloudy with Thunderstorms 69 20.6 67 19.4 93 93 NW 3 6 29.74 1007 3 5 0.35 8.89
3:53 am 03:53 Mostly Cloudy with Thunderstorms 69 20.6 67 19.4 93 93 S 10 17 29.70 1006 10 16 0.35 8.89
4:02 am 04:02 Mostly Cloudy 69 20.6 67 19.4 93 93 S 10 17 29.68 1005 10 16 0.00 0.00
4:46 am 04:46 Mostly Cloudy with Nearby Thunderstorms 69 20.6 67 19.4 93 93 SSE 8 13 29.65 1004 10 16 0.00 0.00
4:53 am 04:53 Cloudy with Nearby Thunderstorms 69 20.6 67 19.4 93 93 S 7 11 29.68 1005 9 14 0.01 0.25
5:03 am 05:03 Cloudy with Thunderstorms 69 20.6 67 19.4 93 93 NNW 9 15 29.71 1006 5 8 0.05 1.27
5:08 am 05:08 Cloudy with Strong Thunderstorms 69 20.6 67 19.4 93 93 NNW 23 37 29.77 1008 2 3 0.18 4.57
5:13 am 05:13 Cloudy with Strong Thunderstorms 69 20.6 67 19.4 93 93 N 12 19 29.77 1008 1 1 0.47 11.94
5:20 am 05:20 Cloudy with Strong Thunderstorms 69 20.6 67 19.4 93 93 SSW 6 9 29.74 1007 1 2 0.59 14.99
5:25 am 05:25 Cloudy with Thunderstorms 68 20 66 18.9 93 93 SSE 7 11 29.74 1007 3 4 0.61 15.49
5:32 am 05:32 Cloudy with Thunderstorms 69 20.6 67 19.4 93 93 SSW 8 13 29.74 1007 4 6 0.64 16.26
5:42 am 05:42 Cloudy with Strong Thunderstorms 69 20.6 67 19.4 93 93 VRB 3 6 29.74 1007 2 3 0.75 19.05
5:51 am 05:51 Cloudy with Thunderstorms 68 20 66 19 94 94 VRB 7 11 29.68 1005 3 5 0.78 19.81
5:53 am 05:53 Cloudy with Thunderstorms 68 20 66 18.9 93 93 VRB 6 9 29.67 1005 4 6 0.78 19.81
6:32 am 06:32 Mostly Sunny 69 20.6 66 18.9 90 90 SSW 10 17 29.68 1005 10 16 0.00 0.03
6:53 am 06:53 Mostly Sunny 69 20.6 66 18.9 90 90 SW 6 9 29.69 1005 10 16 0.00 0.03
7:53 am 07:53 Partly Cloudy 70 21.1 67 19.4 90 90 S 5 7 29.68 1005 10 16 0.01 0.25
8:53 am 08:53 Sunny 72 22.2 68 20 87 87 SW 9 15 29.69 1005 10 16 0.00 0.00
9:53 am 09:53 Sunny 76 24.4 70 21.1 82 82 SW 13 20 29.68 1005 10 16 0.00 0.00
10:53 am 10:53 Partly Cloudy 79 26.1 72 22.2 79 79 SW 12 19 29.69 1005 10 16 0.00 0.00
11:02 am 11:02 Mostly Cloudy 79 26.1 73 22.8 82 82 SW 15 24 29.68 1005 10 16 0.00 0.00
11:53 am 11:53 Mostly Cloudy 81 27.2 74 23.3 79 79 SW 16 26 29.68 1005 10 16 0.00 0.00
12:11 pm 12:11 Mostly Cloudy 83 28.3 75 23.9 77 77 WSW 10 17 29.65 1004 10 16 0.00 0.00
12:18 pm 12:18 Mostly Cloudy 81 27.2 74 23.3 79 79 SW 9 15 29.68 1005 10 16 0.00 0.00
12:53 pm 12:53 Cloudy 81 27.2 74 23.3 79 79 SW 10 17 29.68 1005 10 16 0.00 0.00
1:05 pm 13:05 Cloudy 82 27.8 74 23.3 77 77 SW 14 22 29.65 1004 10 16 0.00 0.00
1:15 pm 13:15 Mostly Cloudy 82 27.8 75 23.9 79 79 SW 15 24 29.65 1004 10 16 0.00 0.00
1:30 pm 13:30 Partly Cloudy 83 28.3 75 23.9 77 77 SW 12 19 29.65 1004 10 16 0.00 0.00
1:53 pm 13:53 Mostly Sunny 84 28.9 75 23.9 74 74 SW 14 22 29.66 1004 10 16 0.00 0.00
2:53 pm 14:53 Sunny 86 30 76 24.4 72 72 SW 14 22 29.63 1004 10 16 0.00 0.00
3:53 pm 15:53 Partly Cloudy 88 31.1 75 23.9 66 66 W 10 17 29.61 1003 10 16 0.00 0.00
4:53 pm 16:53 Sunny 90 32.2 67 19.4 47 47 W 15 24 29.58 1002 10 16 0.00 0.00
5:53 pm 17:53 Mostly Cloudy 90 32.2 67 19.4 47 47 WNW 13 20 29.57 1002 10 16 0.00 0.00
6:53 pm 18:53 Partly Cloudy 87 30.6 69 20.6 55 55 W 9 15 29.57 1002 10 16 0.00 0.00
7:27 pm 19:27 Cloudy with Heavy Rain 77 25 69 20.6 77 77 NW 23 37 29.62 1003 2 3 0.09 2.29
7:32 pm 19:32 Cloudy with Heavy Rain 74 23.3 68 20 82 82 WNW 13 20 29.62 1003 1 1 0.16 4.06
7:35 pm 19:35 Cloudy with Strong Thunderstorms 74 23.3 69 20.6 85 85 WNW 10 17 29.62 1003 1 2 0.17 4.32
7:39 pm 19:39 Cloudy with Thunderstorms 74 23.3 69 20.6 85 85 W 7 11 29.62 1003 2 3 0.17 4.32
7:53 pm 19:53 Cloudy with Nearby Thunderstorms 75 23.9 70 21.1 84 84 Calm 29.63 1003 10 16 0.17 4.32
8:06 pm 20:06 Partly Cloudy 76 24.4 71 21.7 85 85 WNW 3 6 29.65 1004 10 16 0.00 0.00
8:53 pm 20:53 Mostly Sunny 74 23.3 71 21.7 91 91 Calm 29.68 1005 10 16 0.00 0.00
9:53 pm 21:53 Clear 73 22.8 70 21.1 90 90 Calm 29.69 1006 10 16 0.00 0.00
10:53 pm 22:53 Clear 72 22.2 68 20 87 87 N 3 6 29.71 1006 10 16 0.00 0.00
11:53 pm 23:53 Clear 72 22.2 65 18.3 79 79 Calm 29.74 1007 10 16 0.00 0.00

Powered by AerisWeather